Location: Bh?mavarapp?du
(16.7041°N, 80.6518°E)
Time: 06:23:16
(UTC+00:00)

Daily predictions for brighter satellites

Satellite Brightness Start Highest point End
(mag) Time Altitude Azimuth Time Altitude Azimuth Time Altitude Azimuth
GPS 2-12 Rocket1 2.9 13:28:50 10° WSW 13:33:13 84° SSE 13:37:41 10° E
Lacrosse 4 Rocket 3.8 13:31:27 10° NW 13:34:52 23° WSW 13:38:19 10° SSW
SL-08 R/B 4.4 13:30:54 10° N 13:35:26 50° WNW 13:39:54 10° SSW
SL-8 R/B 3.7 13:37:10 10° NW 13:41:55 83° SW 13:46:39 10° SE
Cosmos 407 Rocket 4.0 13:37:18 10° SSW 13:42:31 66° WNW 13:47:40 10° N
Cosmos 1674 4.3 13:41:02 10° SE 13:42:57 14° E 13:44:51 10° ENE
Ariane 3 Deb 4.0 13:40:01 10° SW 13:43:03 19° S 13:45:22 10° SE
Cosmos 2251 Rocket 3.8 13:38:10 10° SSW 13:43:24 76° WNW 13:48:40 10° N
Delta 128 4.3 13:38:20 10° SW 13:43:31 56° SSE 13:49:39 10° ENE
ATLAS CENTAUR R/B 4.5 13:30:32 10° NNW 13:44:04 69° NE 13:53:07 10° SE
Cosmos 1733 2.9 13:42:08 10° N 13:45:38 84° E 13:49:08 10° S
Cosmos 1805 3.7 13:46:59 10° NNE 13:50:22 35° E 13:53:46 10° SSE
ARIANE 5 DEB (SYLDA) 4.3 13:43:03 10° WSW 13:52:10 28° SSW 13:55:17 12° SE
Resurs 01 Rocket 3.4 13:53:21 12° ESE 13:55:20 15° ENE 13:57:48 10° NE
Cosmos 44 Rocket 3.5 13:51:09 10° NNW 13:55:48 66° WSW 14:00:22 10° SSE
Cosmos 2360 4.2 13:50:33 10° N 13:56:14 68° ENE 14:01:54 10° SSE
Meteor 2-9 Rocket 4.5 13:51:04 10° N 13:56:44 74° W 14:02:14 10° S
Delta 202 4.1 13:52:02 10° W 13:57:54 49° SSW 14:02:03 15° SE
Cosmos 1954 Rocket 4.1 13:54:54 10° S 14:00:05 59° ESE 14:05:16 10° NNE
USA 234 3.2 13:53:44 10° NE 14:00:14 71° SE 14:06:43 10° SSW
Cosmos 1975 3.4 13:56:58 10° NNE 14:00:28 34° E 14:03:06 15° SE
Cosmos 1340 4.0 13:57:39 10° NNW 14:00:44 34° W 14:03:48 10° SSW
Meteor 1-18 Rocket 4.5 13:54:57 10° S 14:00:51 82° W 14:06:43 10° N
Cosmos 1328 Rocket 3.4 13:56:46 10° S 14:01:04 86° E 14:05:20 10° N
GPS 2-15 Rocket1 3.6 13:57:45 10° SW 14:02:17 41° SSE 14:05:52 15° E
ADEOS 3.6 13:57:22 10° SSE 14:02:34 89° ENE 14:07:46 10° NNW
SWIFT 3.9 14:01:30 10° SSW 14:03:47 15° SSE 14:04:17 15° SSE
Centaur AC-119 3.7 14:02:10 10° W 14:05:09 44° N 14:13:10 10° ENE
CZ-4B R/B 4.1 14:02:15 15° SE 14:05:38 29° ENE 14:10:07 10° NNE
Meteor PRIRODA 3.9 14:03:57 10° S 14:07:15 59° WSW 14:10:33 10° NNW
CZ-4B R/B 2.9 14:04:48 10° SSE 14:08:50 70° ENE 14:13:02 10° N
Cosmos 1743 Rocket 4.3 14:06:12 10° NNW 14:10:33 55° W 14:14:52 10° S
Cosmos 676 Rocket 4.0 14:06:59 10° S 14:12:13 62° ESE 14:17:27 10° NNE
Atlas 2A Centaur Rocket 3.7 14:08:25 10° W 14:12:59 26° NNW 14:15:11 10° NE
Cosmos 1066 Rocket 4.3 14:09:58 10° S 14:15:49 89° W 14:21:40 10° N
ATLAS CENTAUR R/B 0.9 14:18:12 10° S 14:21:36 54° ESE 14:24:57 10° NE
Cosmos 1626 4.5 14:19:56 10° SW 14:22:22 20° W 14:24:49 10° NNW
Resurs 1-3 4.0 14:21:56 10° S 14:26:13 62° W 14:30:29 10° NNW
USA 186 2.0 14:25:51 41° ESE 14:26:35 51° ENE 14:29:49 10° N
Cosmos 1092 Rocket 4.3 14:21:07 10° S 14:27:23 70° W 14:33:41 10° N
USA 59 Rocket 3.6 14:23:25 10° W 14:27:24 17° WSW 14:32:06 10° SSW
PAYLOAD B 4.2 14:23:25 15° SSE 14:28:07 79° ENE 14:33:40 10° N
Sylda 5 4.4 14:31:00 10° S 14:31:13 10° S 14:31:13 10° S
Meteor 2-12 Rocket 4.4 14:26:53 10° S 14:32:57 65° E 14:39:02 10° NNE
Cosmos 1515 Rocket 3.4 14:30:44 11° S 14:34:54 88° W 14:39:13 10° N
CARTOSAT-1 3.7 14:37:49 43° ESE 14:38:43 51° ENE 14:42:50 10° N
NATO 3D Rocket 3.4 14:34:24 10° W 14:39:04 73° N 14:42:19 23° ENE
KORONAS-FOTON 3.6 14:37:42 29° S 14:39:30 87° W 14:43:13 10° N
BlueWalker 3 1.9 14:35:51 10° SSW 14:39:11 55° SSE 14:39:11 55° SSE
SJ-6B 4.2 14:38:07 12° SSW 14:41:02 33° W 14:44:19 10° NW
Okean-O 4.3 14:42:42 19° ENE 14:42:42 19° ENE 14:45:00 10° NNE
Cosmos 1763 Rocket 4.4 14:40:28 10° NNE 14:44:53 28° ENE 14:44:54 28° ENE
Feng Yun 1-1 Rocket 4.3 14:42:14 30° SSE 14:45:17 72° ENE 14:51:05 10° N
Cosmos 1842 3.6 14:44:33 22° SSW 14:46:40 58° W 14:50:15 10° N
SPOT 1/Viking Rocket 4.2 14:42:21 13° S 14:46:43 53° W 14:51:42 10° NNW
FUSE 4.1 14:41:47 10° SW 14:46:55 50° SSE 14:47:39 46° SE
Cosmos 2369 4.3 14:43:23 10° N 14:48:41 38° ENE 14:49:27 36° E
Cosmos 1633 Rocket 3.1 14:45:29 10° N 14:49:49 76° W 14:51:22 39° S
Lacrosse 5 rocket 2.8 14:47:25 10° WNW 14:50:59 29° WSW 14:52:14 24° SSW
Atlas Centaur 2 4.4 14:46:26 10° NW 14:53:12 30° N 15:00:20 10° ENE
CSL-04 Rocket 3.5 14:52:41 44° SSE 14:54:24 78° ENE 14:59:40 10° N
Okean O Rocket 1.4 14:59:18 75° ESE 14:59:30 77° ENE 15:03:52 10° N
IRIDIUM 104 4.2 14:55:16 10° N 15:00:28 77° E 15:01:31 57° SSE
CZ-4 R/B 3.4 15:00:12 14° SW 15:02:34 24° W 15:05:46 10° NW
Cosmos 1697 Rocket 3.9 14:58:39 10° NW 15:03:44 37° WSW 15:07:08 19° SSW
Cosmos 1470 Rocket 3.4 15:01:32 10° N 15:05:46 84° WNW 15:05:46 84° WNW
MOS 1-B 4.3 15:03:56 41° S 15:06:04 80° WSW 15:11:50 10° NNW
Cosmos 1707 3.9 15:06:07 33° WSW 15:06:49 37° W 15:10:11 10° NNW
CSL-04 Debris 4.3 15:05:50 39° S 15:07:50 68° WSW 15:13:12 10° NNW
IRIDIUM 114 4.3 15:04:24 10° N 15:09:36 83° W 15:10:38 58° SSW
DELTA 2 R/B (1) 3.6 15:06:18 10° WNW 15:11:51 66° SW 15:12:22 62° S
GPS 2-12 Rocket1 3.5 15:12:05 10° W 15:16:11 57° NNW 15:16:11 57° NNW
Cosmos 1932 4.3 15:13:15 31° SSW 15:16:33 78° ESE 15:22:53 10° NNE
Cosmos 1850 Rocket 4.1 15:21:20 59° SW 15:22:11 72° WNW 15:27:23 10° N
Cosmos 1980 Rocket 2.4 15:16:53 10° NNW 15:22:29 65° WSW 15:23:12 59° SW
GOES 2 Rocket 3.8 15:19:29 10° WSW 15:26:41 78° NNW 15:27:30 65° NE
Cosmos 540 Rocket 4.2 15:25:43 10° N 15:29:23 45° NNE 15:29:23 45° NNE
SL-08 ROCKET BODY 4.3 15:30:49 84° S 15:31:03 89° W 15:37:11 10° N
Resurs 01 Rocket 3.3 15:30:50 25° WSW 15:31:26 26° W 15:35:07 10° NW
Cosmos 968 Rocket 4.4 15:34:14 40° NNE 15:34:14 40° NNE 15:37:28 10° NNE
SPOT 5 4.4 15:35:21 24° N 15:35:21 24° N 15:37:09 10° N
Terra 4.1 16:06:18 18° N 16:06:18 18° N 16:07:29 10° N
Cosmos 2360 Rocket 4.5 16:09:38 10° NNE 16:10:46 15° NNE 16:10:46 15° NNE
SL-16 R/B 4.0 16:21:39 10° NNW 16:24:07 27° NNW 16:24:07 27° NNW
Cosmos 2333 Rocket 4.5 16:27:53 10° N 16:29:12 17° NNE 16:29:12 17° NNE
FALCON 9 R/B 4.5 16:36:27 10° W 16:40:41 36° WSW 16:40:41 36° WSW
Atlas Centaur 2 3.8 16:35:52 10° NW 16:42:47 45° N 16:42:47 45° N
ADEOS II 4.5 20:32:09 10° NNE 20:33:29 18° NNE 20:33:29 18° NNE
SL-16 R/B 3.4 21:14:55 39° ESE 21:16:18 45° ENE 21:22:12 10° N
Gbstr 26 Del rocket 4.4 21:22:25 53° NE 21:22:25 53° NE 21:27:27 10° NE
Lacrosse 5 3.5 21:25:21 28° E 21:25:21 28° E 21:28:33 10° ENE
Cosmos 2123 Rocket 4.3 21:20:23 10° N 21:26:30 61° E 21:26:44 60° E
CZ-2C R/B 3.6 21:30:42 10° NNE 21:34:25 36° E 21:34:25 36° E
Envisat 3.4 21:37:49 10° NNE 21:41:53 59° NNE 21:41:53 59° NNE
Cosmos 2278 Rocket 3.3 21:42:31 33° SE 21:43:46 37° ESE 21:48:54 10° NE
Cosmos 1048 Rocket 4.3 21:40:15 10° N 21:45:28 64° ENE 21:45:47 63° E
FUSE 4.0 21:53:16 73° N 21:53:23 74° NNE 21:58:44 10° ESE
ALOS 4.4 21:53:08 10° NNW 21:54:14 15° NNW 21:54:14 15° NNW
Cosmos 1603 4.3 21:56:05 10° NNW 22:00:06 43° NW 22:00:06 43° NW
Iridium 4 Rocket 3.4 22:01:36 10° N 22:06:08 67° WNW 22:06:08 67° WNW
PAYLOAD A 4.0 22:09:15 10° N 22:14:36 82° WNW 22:15:58 52° SSW
Okean 1-7 Rocket 3.4 22:16:58 74° W 22:17:03 74° W 22:21:32 10° N
Cosmos-2242 4.0 22:13:26 10° NNE 22:17:32 44° E 22:20:51 14° SSE
Cosmos 2100 Rocket 4.3 22:13:46 19° S 22:18:18 65° E 22:24:25 10° NNE
Cosmos 1153 Rocket 4.4 22:17:48 44° SSW 22:19:43 67° W 22:25:48 10° N
USA 305 4.3 22:21:29 20° SE 22:21:36 20° SE 22:23:58 10° ENE
USA 290 4.1 22:24:53 22° SE 22:25:55 26° ESE 22:28:39 10° NE
SWIFT 2.5 22:28:52 49° SSE 22:28:52 49° SSE 22:32:15 10° ESE
NOSS 3-1 (C) 2.7 22:27:52 42° S 22:29:21 74° ESE 22:34:07 10° NNE
Cosmos 1271 Rocket 3.3 22:31:31 38° NW 22:31:31 38° NW 22:34:10 10° N
Cosmos 1607 3.8 22:26:08 10° NNW 22:32:25 86° WSW 22:38:34 10° SSE
ISS -3.2 22:39:05 42° SSE 22:39:43 50° SE 22:42:57 10° NE
Cosmos 1862 3.5 22:39:57 42° W 22:39:57 42° W 22:43:34 10° NNW
Stardust Del rocket 3.7 22:40:41 40° SSW 22:40:59 41° SSW 22:46:21 10° SE
Thor Agena Rocket 3.8 22:35:57 10° N 22:41:00 50° WNW 22:43:09 31° SW
YAOGAN 6 4.4 22:40:13 10° NNW 22:41:19 16° NW 22:41:19 16° NW
Cosmos 1602 Rocket 4.4 22:44:48 30° W 22:45:04 31° W 22:49:00 10° NNW
Cosmos 1825 Rocket 3.5 22:42:44 22° S 22:45:33 85° W 22:49:58 10° N
GPS 2-17 Rocket1 3.7 22:45:36 31° SSW 22:47:19 44° SSE 22:51:51 10° E
Aurora 2 Rocket 4.2 22:43:48 17° WNW 22:47:30 43° N 22:54:09 10° ENE
NOSS 3-1 (A) 4.1 22:43:46 11° S 22:47:46 35° ESE 22:52:05 10° NE
Cosmos 220 Rocket 4.4 22:44:07 10° N 22:48:10 59° ENE 22:52:13 10° SSE
ATLAS 3B R/B 3.7 22:46:10 10° S 22:52:20 43° ESE 22:58:56 10° NE
Cosmos 1484 Rocket 2.7 22:48:59 10° NNE 22:52:45 78° ESE 22:55:45 15° S
Cosmos 489 Rocket 4.4 22:48:21 19° SSW 22:52:57 69° WNW 22:59:08 10° N
Cosmos 1812 Rocket 3.6 22:48:50 10° N 22:53:11 80° E 22:57:34 10° S
Cosmos 1943 Rocket 2.1 22:49:29 20° SSW 22:53:29 77° WNW 22:59:09 10° NNE
BREEZE-M DEB (TANK) 2.6 22:53:18 29° W 22:54:26 43° SW 23:00:28 10° SSE
Cosmos 2346 Rocket 4.3 22:48:30 10° N 22:54:32 80° W 23:00:36 10° S
ATLAS 2A CENTAUR R/B 1.7 22:55:59 28° SSE 22:55:59 28° SSE 22:57:22 10° SE
Cosmos 1378 2.7 22:52:33 10° N 22:55:48 83° E 22:59:02 10° S
Cosmos 1939 Rocket 3.2 22:52:15 10° NNE 22:56:06 61° E 22:59:55 10° S
CSL-04 DEB 4.1 22:53:15 10° N 22:56:59 76° WNW 22:59:44 18° SSW
SL-16 R/B 3.9 23:00:00 17° W 23:00:00 17° W 23:03:41 10° WNW
ARGOS 4.3 22:55:07 10° NNE 23:00:14 44° E 23:05:22 10° S
Cosmos 1515 3.7 22:58:06 10° NNW 23:01:25 46° W 23:03:49 17° SSW
Ariane H10 3.3 23:03:41 12° S 23:03:55 12° S 23:05:02 10° SE
GOES 2 Rocket 3.2 23:01:36 13° WNW 23:05:21 60° SSW 23:10:33 10° SE
Lacrosse 5 3.4 23:04:34 15° W 23:06:58 21° NW 23:10:47 10° N
H-2A R/B 2.3 23:06:06 10° N 23:11:04 48° WNW 23:15:50 10° SSW
CZ-2C R/B 4.2 23:11:09 10° NW 23:12:43 12° WNW 23:13:42 11° W
USA 307 2.4 23:12:03 15° SSW 23:14:58 78° SE 23:18:14 10° NE
Cosmos 1666 4.0 23:14:26 17° WSW 23:15:16 18° W 23:17:43 10° NW
Cosmos 1782 4.2 23:19:39 10° NW 23:22:16 18° W 23:24:20 12° SW
Cosmos 2151 3.2 23:19:06 10° SSW 23:23:03 45° W 23:27:00 10° N
Cosmos 1802 Rocket 4.5 23:19:34 10° SSW 23:25:33 43° W 23:31:37 10° NNW
Cosmos 2278 Rocket 3.8 23:24:23 11° WSW 23:27:44 18° WNW 23:31:25 10° NNW
ARIANE 5 R/B 2.9 23:24:16 10° NNE 23:29:12 64° ESE 23:34:11 10° S
Intercosmos 25 4.0 23:31:09 10° SSW 23:34:24 27° W 23:37:11 10° NNW
GPS 2-14 Rocket1 3.1 23:36:29 10° WNW 23:39:17 37° N 23:42:06 10° ENE
IRS-P3 4.5 23:36:36 10° NNE 23:41:54 71° ESE 23:47:11 10° S
Meteor 1-20 Rocket 4.4 23:42:21 10° S 23:48:08 89° E 23:53:59 10° N
